Time,TemperatureF,DewpointF,PressureIn,WindDirection,WindDirectionDegrees,WindSpeedMPH,WindSpeedGustMPH,Humidity,HourlyPrecipIn,Conditions,Clouds,dailyrainin,SolarRadiationWatts/m^2,SoftwareType,DateUTC
2013-04-03 00:02:00,50.7,49.0,29.56,WNW,286,8.1,8.1,94,0.01,RA,FEW,0.00,0.0,WeatherDisplay:10.37,2013-04-02 22:02:00,
2013-04-03 00:07:00,50.6,48.9,29.56,West,271,8.1,8.1,94,0.01,RA,FEW,0.00,0.0,WeatherDisplay:10.37,2013-04-02 22:07:00,
2013-04-03 00:12:00,50.7,49.0,29.56,West,259,8.1,8.1,94,0.01,CLR,FEW,0.00,0.0,WeatherDisplay:10.37,2013-04-02 22:12:00,
2013-04-03 00:17:00,50.6,48.9,29.56,West,269,6.9,6.9,94,0.01,CLR,FEW,0.00,0.0,WeatherDisplay:10.37,2013-04-02 22:17:00,
2013-04-03 00:23:00,50.4,48.7,29.57,West,259,6.9,6.9,94,0.00,CLR,FEW,0.00,0.0,WeatherDisplay:10.37,2013-04-02 22:23:00,
2013-04-03 00:28:00,50.2,48.5,29.57,West,273,6.9,6.9,94,0.00,CLR,FEW,0.00,0.0,WeatherDisplay:10.37,2013-04-02 22:28:00,
2013-04-03 00:33:00,50.2,48.5,29.57,WNW,303,10.4,10.4,94,0.00,CLR,FEW,0.00,0.0,WeatherDisplay:10.37,2013-04-02 22:33:00,
2013-04-03 00:38:00,50.4,48.7,29.57,WSW,254,11.5,11.5,94,0.00,CLR,FEW,0.00,0.0,WeatherDisplay:10.37,2013-04-02 22:38:00,
2013-04-03 00:43:00,50.6,49.2,29.57,NW,310,9.2,9.2,95,0.00,CLR,FEW,0.00,0.0,WeatherDisplay:10.37,2013-04-02 22:43:00,
2013-04-03 00:48:00,50.7,49.0,29.57,NW,308,11.5,11.5,94,0.00,CLR,FEW,0.00,0.0,WeatherDisplay:10.37,2013-04-02 22:48:00,
2013-04-03 00:54:00,50.8,49.1,29.57,WNW,302,10.4,10.4,94,0.00,CLR,FEW,0.00,0.0,WeatherDisplay:10.37,2013-04-02 22:54:00,
2013-04-03 00:59:00,50.8,49.1,29.57,WNW,283,6.0,6.0,94,0.00,CLR,FEW,0.00,0.0,WeatherDisplay:10.37,2013-04-02 22:59:00,
2013-04-03 01:04:00,50.8,49.1,29.57,West,279,10.4,10.4,94,0.00,CLR,FEW,0.00,0.0,WeatherDisplay:10.37,2013-04-02 23:04:00,
2013-04-03 01:09:00,50.9,49.2,29.57,West,269,6.9,6.9,94,0.00,CLR,FEW,0.00,0.0,WeatherDisplay:10.37,2013-04-02 23:09:00,
2013-04-03 01:14:00,51.0,49.3,29.57,WNW,288,6.0,6.0,94,0.00,CLR,FEW,0.00,0.0,WeatherDisplay:10.37,2013-04-02 23:14:00,
2013-04-03 01:19:00,51.1,49.4,29.58,NNW,327,6.9,6.9,94,0.00,CLR,FEW,0.00,0.0,WeatherDisplay:10.37,2013-04-02 23:19:00,
2013-04-03 01:25:00,51.1,49.4,29.58,WSW,250,5.8,5.8,94,0.00,CLR,FEW,0.00,0.0,WeatherDisplay:10.37,2013-04-02 23:25:00,
2013-04-03 01:30:00,51.1,49.4,29.58,West,270,11.5,11.5,94,0.00,CLR,FEW,0.00,0.0,WeatherDisplay:10.37,2013-04-02 23:30:00,
2013-04-03 01:35:00,51.2,49.5,29.58,WNW,299,8.1,8.1,94,0.00,CLR,FEW,0.00,0.0,WeatherDisplay:10.37,2013-04-02 23:35:00,
2013-04-03 01:40:00,51.3,49.9,29.58,WNW,297,6.9,6.9,95,0.00,CLR,FEW,0.00,0.0,WeatherDisplay:10.37,2013-04-02 23:40:00,
2013-04-03 01:46:00,51.1,49.4,29.58,WNW,294,10.4,10.4,94,0.00,CLR,FEW,0.00,0.0,WeatherDisplay:10.37,2013-04-02 23:46:00,
2013-04-03 01:51:00,51.2,49.5,29.58,West,270,11.5,11.5,94,0.00,CLR,FEW,0.00,0.0,WeatherDisplay:10.37,2013-04-02 23:51:00,
2013-04-03 01:57:00,51.2,49.5,29.58,West,269,9.2,9.2,94,0.00,CLR,FEW,0.00,0.0,WeatherDisplay:10.37,2013-04-02 23:57:00,
2013-04-03 02:02:00,51.1,49.4,29.59,West,259,10.4,10.4,94,0.01,RA,FEW,0.01,0.0,WeatherDisplay:10.37,2013-04-03 00:02:00,
2013-04-03 02:07:00,51.1,49.4,29.59,WNW,302,10.4,10.4,94,0.01,RA,FEW,0.01,0.0,WeatherDisplay:10.37,2013-04-03 00:07:00,
2013-04-03 02:12:00,50.9,49.2,29.59,WSW,251,5.8,5.8,94,0.01,CLR,FEW,0.01,0.0,WeatherDisplay:10.37,2013-04-03 00:12:00,
2013-04-03 02:18:00,51.0,49.3,29.58,West,272,11.5,11.5,94,0.01,CLR,FEW,0.01,0.0,WeatherDisplay:10.37,2013-04-03 00:18:00,
2013-04-03 02:23:00,51.0,49.3,29.58,West,275,9.2,9.2,94,0.01,CLR,FEW,0.01,0.0,WeatherDisplay:10.37,2013-04-03 00:23:00,
2013-04-03 02:28:00,51.1,49.4,29.58,West,269,10.0,10.0,94,0.01,CLR,FEW,0.01,0.0,WeatherDisplay:10.37,2013-04-03 00:28:00,
2013-04-03 02:33:00,51.2,49.5,29.58,WSW,249,11.5,11.5,94,0.01,CLR,FEW,0.01,0.0,WeatherDisplay:10.37,2013-04-03 00:33:00,
2013-04-03 02:39:00,51.3,49.6,29.58,WNW,296,13.8,13.8,94,0.01,CLR,FEW,0.01,0.0,WeatherDisplay:10.37,2013-04-03 00:39:00,
2013-04-03 02:44:00,51.3,49.6,29.58,West,271,9.2,9.2,94,0.01,CLR,FEW,0.01,0.0,WeatherDisplay:10.37,2013-04-03 00:44:00,
2013-04-03 02:49:00,51.4,49.7,29.59,NW,309,9.2,9.2,94,0.01,CLR,FEW,0.01,0.0,WeatherDisplay:10.37,2013-04-03 00:49:00,
2013-04-03 02:55:00,51.5,49.8,29.59,WSW,248,12.7,12.7,94,0.01,CLR,FEW,0.01,0.0,WeatherDisplay:10.37,2013-04-03 00:55:00,
2013-04-03 03:00:00,51.5,49.8,29.59,WSW,244,9.2,9.2,94,0.00,CLR,FEW,0.01,0.0,WeatherDisplay:10.37,2013-04-03 01:00:00,
2013-04-03 03:05:00,51.5,49.8,29.58,West,261,6.9,6.9,94,0.00,CLR,FEW,0.01,0.0,WeatherDisplay:10.37,2013-04-03 01:05:00,
2013-04-03 03:10:00,51.5,49.8,29.59,West,273,10.4,10.4,94,0.00,CLR,FEW,0.01,0.0,WeatherDisplay:10.37,2013-04-03 01:10:00,
2013-04-03 03:15:00,51.5,49.8,29.58,West,265,13.8,13.8,94,0.00,CLR,FEW,0.01,0.0,WeatherDisplay:10.37,2013-04-03 01:15:00,
2013-04-03 03:20:00,51.4,49.7,29.59,WNW,291,16.0,16.0,94,0.00,CLR,FEW,0.01,0.0,WeatherDisplay:10.37,2013-04-03 01:20:00,
2013-04-03 03:25:00,51.6,49.9,29.59,WSW,251,15.0,15.0,94,0.00,CLR,FEW,0.01,0.0,WeatherDisplay:10.37,2013-04-03 01:25:00,
2013-04-03 03:30:00,51.6,49.9,29.59,West,260,8.0,8.0,94,0.00,CLR,FEW,0.01,0.0,WeatherDisplay:10.37,2013-04-03 01:30:00,
2013-04-03 03:35:00,51.2,49.5,29.59,NW,321,10.4,10.4,94,0.00,CLR,FEW,0.01,0.0,WeatherDisplay:10.37,2013-04-03 01:35:00,
2013-04-03 03:40:00,50.6,48.9,29.60,WNW,300,11.5,11.5,94,0.02,RA,FEW,0.02,0.0,WeatherDisplay:10.37,2013-04-03 01:40:00,
2013-04-03 03:46:00,50.6,48.9,29.60,WNW,300,8.1,8.1,94,0.03,RA,FEW,0.04,0.0,WeatherDisplay:10.37,2013-04-03 01:46:00,
2013-04-03 03:52:00,50.7,49.0,29.60,WNW,299,9.0,9.0,94,0.04,RA,FEW,0.06,0.0,WeatherDisplay:10.37,2013-04-03 01:52:00,
2013-04-03 03:57:00,50.8,49.1,29.60,WNW,298,9.2,9.2,94,0.06,RA,FEW,0.07,0.0,WeatherDisplay:10.37,2013-04-03 01:57:00,
2013-04-03 04:02:00,50.8,49.1,29.60,West,277,6.9,6.9,94,0.06,RA,FEW,0.07,0.0,WeatherDisplay:10.37,2013-04-03 02:02:00,
2013-04-03 04:07:00,51.0,49.3,29.60,NNW,329,4.6,4.6,94,0.06,RA,FEW,0.07,0.0,WeatherDisplay:10.37,2013-04-03 02:07:00,
2013-04-03 04:12:00,50.9,49.2,29.60,WNW,298,13.8,13.8,94,0.06,CLR,FEW,0.07,0.0,WeatherDisplay:10.37,2013-04-03 02:12:00,
2013-04-03 04:18:00,51.0,49.3,29.60,WNW,295,10.4,10.4,94,0.06,CLR,FEW,0.07,0.0,WeatherDisplay:10.37,2013-04-03 02:18:00,
2013-04-03 04:24:00,50.9,49.2,29.60,WNW,296,10.4,10.4,94,0.07,RA,FEW,0.08,0.0,WeatherDisplay:10.37,2013-04-03 02:24:00,
2013-04-03 04:29:00,50.7,49.0,29.60,West,269,8.1,8.1,94,0.07,RA,FEW,0.08,0.0,WeatherDisplay:10.37,2013-04-03 02:29:00,
2013-04-03 04:34:00,50.8,49.4,29.60,WNW,299,7.0,7.0,95,0.07,CLR,FEW,0.08,0.0,WeatherDisplay:10.37,2013-04-03 02:34:00,
2013-04-03 04:39:00,50.9,49.5,29.60,WNW,291,9.2,9.2,95,0.06,CLR,FEW,0.08,0.0,WeatherDisplay:10.37,2013-04-03 02:39:00,
2013-04-03 04:44:00,51.0,49.6,29.60,West,267,8.1,8.1,95,0.05,CLR,FEW,0.08,0.0,WeatherDisplay:10.37,2013-04-03 02:44:00,
2013-04-03 04:49:00,51.1,49.7,29.60,WNW,298,9.2,9.2,95,0.04,CLR,FEW,0.09,0.0,WeatherDisplay:10.37,2013-04-03 02:49:00,
2013-04-03 04:54:00,51.1,49.7,29.60,NW,311,8.1,8.1,95,0.03,RA,FEW,0.09,0.0,WeatherDisplay:10.37,2013-04-03 02:54:00,
2013-04-03 04:59:00,51.0,49.3,29.60,WNW,288,10.4,10.4,94,0.02,RA,FEW,0.09,0.0,WeatherDisplay:10.37,2013-04-03 02:59:00,
2013-04-03 05:04:00,50.5,48.8,29.60,West,273,11.5,11.5,94,0.02,RA,FEW,0.09,0.0,WeatherDisplay:10.37,2013-04-03 03:04:00,
2013-04-03 05:09:00,50.2,48.5,29.60,WSW,244,13.8,13.8,94,0.02,CLR,FEW,0.09,0.0,WeatherDisplay:10.37,2013-04-03 03:09:00,
2013-04-03 05:15:00,50.1,48.7,29.60,West,262,11.5,11.5,95,0.02,CLR,FEW,0.09,0.0,WeatherDisplay:10.37,2013-04-03 03:15:00,
2013-04-03 05:20:00,50.2,48.8,29.60,West,263,13.8,13.8,95,0.02,CLR,FEW,0.09,0.0,WeatherDisplay:10.37,2013-04-03 03:20:00,
2013-04-03 05:25:00,50.4,49.0,29.60,West,263,11.5,11.5,95,0.02,CLR,FEW,0.09,0.0,WeatherDisplay:10.37,2013-04-03 03:25:00,
2013-04-03 05:30:00,50.6,49.2,29.60,WSW,250,11.5,11.5,95,0.02,CLR,FEW,0.09,0.0,WeatherDisplay:10.37,2013-04-03 03:30:00,
2013-04-03 05:35:00,50.6,49.2,29.60,WNW,284,10.4,10.4,95,0.02,CLR,FEW,0.09,0.0,WeatherDisplay:10.37,2013-04-03 03:35:00,
2013-04-03 05:40:00,50.7,49.3,29.60,West,267,9.2,9.2,95,0.02,RA,FEW,0.10,0.0,WeatherDisplay:10.37,2013-04-03 03:40:00,
2013-04-03 05:45:00,50.5,48.8,29.60,West,263,10.4,10.4,94,0.04,RA,FEW,0.12,0.0,WeatherDisplay:10.37,2013-04-03 03:45:00,
2013-04-03 05:50:00,50.3,48.6,29.61,WNW,290,10.4,10.4,94,0.05,RA,FEW,0.13,0.0,WeatherDisplay:10.37,2013-04-03 03:50:00,
2013-04-03 05:55:00,50.4,48.7,29.60,SW,234,12.7,12.7,94,0.04,RA,FEW,0.13,0.0,WeatherDisplay:10.37,2013-04-03 03:55:00,
2013-04-03 06:00:00,50.4,48.7,29.61,West,263,15.0,15.0,94,0.03,CLR,FEW,0.13,0.0,WeatherDisplay:10.37,2013-04-03 04:00:00,
2013-04-03 06:05:00,50.4,48.7,29.61,SW,229,10.4,10.4,94,0.03,CLR,FEW,0.13,0.0,WeatherDisplay:10.37,2013-04-03 04:05:00,
2013-04-03 06:10:00,50.4,48.7,29.61,WNW,283,9.2,9.2,94,0.03,CLR,FEW,0.13,0.0,WeatherDisplay:10.37,2013-04-03 04:10:00,
2013-04-03 06:17:00,50.5,48.8,29.61,West,265,10.4,10.4,94,0.03,OVC,FEW,0.13,0.0,WeatherDisplay:10.37,2013-04-03 04:17:00,
2013-04-03 06:22:00,50.5,48.8,29.61,West,270,10.4,10.4,94,0.03,OVC,FEW,0.13,0.0,WeatherDisplay:10.37,2013-04-03 04:22:00,
2013-04-03 06:27:00,50.5,48.8,29.61,West,265,9.2,9.2,94,0.03,OVC,FEW,0.13,0.0,WeatherDisplay:10.37,2013-04-03 04:27:00,
2013-04-03 06:32:00,50.5,48.8,29.61,WSW,248,6.9,7.9,94,0.03,OVC,FEW,0.13,0.0,WeatherDisplay:10.37,2013-04-03 04:32:00,
2013-04-03 06:37:00,50.5,48.8,29.61,West,279,11.5,11.5,94,0.03,OVC,FEW,0.13,0.0,WeatherDisplay:10.37,2013-04-03 04:37:00,
2013-04-03 06:43:00,50.6,48.9,29.61,West,259,9.2,9.2,94,0.02,OVC,FEW,0.13,0.0,WeatherDisplay:10.37,2013-04-03 04:43:00,
2013-04-03 06:48:00,50.7,49.0,29.61,West,261,11.5,11.5,94,0.00,OVC,FEW,0.13,0.0,WeatherDisplay:10.37,2013-04-03 04:48:00,
2013-04-03 06:53:00,50.7,49.0,29.62,West,262,11.5,11.5,94,0.00,OVC,FEW,0.13,0.0,WeatherDisplay:10.37,2013-04-03 04:53:00,
2013-04-03 06:58:00,50.7,49.0,29.62,WSW,240,8.1,8.1,94,0.02,RA,FEW,0.15,0.0,WeatherDisplay:10.37,2013-04-03 04:58:00,
2013-04-03 07:03:00,50.7,49.0,29.62,WSW,258,15.0,15.0,94,0.02,RA,FEW,0.15,0.0,WeatherDisplay:10.37,2013-04-03 05:03:00,
2013-04-03 07:08:00,50.6,48.9,29.62,West,262,12.0,12.0,94,0.02,RA,FEW,0.15,0.0,WeatherDisplay:10.37,2013-04-03 05:08:00,
2013-04-03 07:13:00,50.5,48.8,29.62,SW,235,11.0,11.0,94,0.02,OVC,FEW,0.15,0.0,WeatherDisplay:10.37,2013-04-03 05:13:00,
2013-04-03 07:18:00,50.5,48.8,29.62,West,267,11.5,11.5,94,0.02,OVC,FEW,0.15,0.0,WeatherDisplay:10.37,2013-04-03 05:18:00,
2013-04-03 07:23:00,50.5,48.8,29.62,WSW,254,10.4,10.4,94,0.02,OVC,FEW,0.15,0.0,WeatherDisplay:10.37,2013-04-03 05:23:00,
2013-04-03 07:28:00,50.5,48.8,29.63,SW,235,11.5,11.5,94,0.02,OVC,FEW,0.15,0.0,WeatherDisplay:10.37,2013-04-03 05:28:00,
2013-04-03 07:33:00,50.6,48.9,29.63,West,265,10.4,10.4,94,0.02,OVC,FEW,0.15,0.0,WeatherDisplay:10.37,2013-04-03 05:33:00,
2013-04-03 07:38:00,50.7,48.7,29.63,West,281,11.5,11.5,93,0.02,OVC,FEW,0.15,0.0,WeatherDisplay:10.37,2013-04-03 05:38:00,
2013-04-03 07:43:00,50.7,48.7,29.63,SW,228,9.2,9.2,93,0.02,OVC,FEW,0.15,0.0,WeatherDisplay:10.37,2013-04-03 05:43:00,
2013-04-03 07:48:00,50.8,48.8,29.64,West,271,14.0,14.0,93,0.02,OVC,FEW,0.15,0.0,WeatherDisplay:10.37,2013-04-03 05:48:00,
2013-04-03 07:53:00,50.8,48.8,29.64,SW,235,11.5,11.5,93,0.02,OVC,FEW,0.15,0.0,WeatherDisplay:10.37,2013-04-03 05:53:00,
2013-04-03 07:58:00,50.9,48.9,29.64,WNW,288,10.4,10.4,93,0.01,OVC,FEW,0.15,0.0,WeatherDisplay:10.37,2013-04-03 05:58:00,
2013-04-03 08:03:00,50.9,48.9,29.64,West,273,10.4,10.4,93,0.00,OVC,FEW,0.15,0.0,WeatherDisplay:10.37,2013-04-03 06:03:00,
2013-04-03 08:08:00,51.1,49.1,29.64,West,269,11.5,11.5,93,0.00,OVC,FEW,0.15,0.0,WeatherDisplay:10.37,2013-04-03 06:08:00,
2013-04-03 08:13:00,51.1,49.1,29.64,West,276,11.5,11.5,93,0.00,OVC,FEW,0.15,0.0,WeatherDisplay:10.37,2013-04-03 06:13:00,
2013-04-03 08:19:00,51.3,49.3,29.64,West,265,9.2,9.2,93,0.00,OVC,FEW,0.15,0.0,WeatherDisplay:10.37,2013-04-03 06:19:00,
2013-04-03 08:24:00,51.3,49.3,29.64,WSW,239,9.0,9.0,93,0.00,OVC,FEW,0.15,0.0,WeatherDisplay:10.37,2013-04-03 06:24:00,
2013-04-03 08:29:00,51.3,49.3,29.64,West,261,8.1,8.1,93,0.00,OVC,FEW,0.15,0.0,WeatherDisplay:10.37,2013-04-03 06:29:00,
2013-04-03 08:34:00,51.3,49.3,29.64,West,268,7.0,7.0,93,0.00,OVC,FEW,0.15,0.0,WeatherDisplay:10.37,2013-04-03 06:34:00,
2013-04-03 08:39:00,51.4,49.4,29.65,West,270,5.0,5.0,93,0.00,OVC,FEW,0.15,0.0,WeatherDisplay:10.37,2013-04-03 06:39:00,
2013-04-03 08:44:00,51.5,49.3,29.65,West,267,9.2,9.2,92,0.00,OVC,FEW,0.15,0.0,WeatherDisplay:10.37,2013-04-03 06:44:00,
2013-04-03 08:49:00,51.6,49.4,29.65,West,275,10.0,10.0,92,0.00,OVC,FEW,0.15,0.0,WeatherDisplay:10.37,2013-04-03 06:49:00,
2013-04-03 08:54:00,51.8,49.5,29.65,West,280,8.1,8.1,92,0.00,OVC,FEW,0.15,0.0,WeatherDisplay:10.37,2013-04-03 06:54:00,
2013-04-03 08:59:00,51.7,49.5,29.65,NW,304,3.5,3.5,92,0.00,OVC,FEW,0.15,0.0,WeatherDisplay:10.37,2013-04-03 06:59:00,
2013-04-03 09:04:00,51.6,49.4,29.65,West,281,3.5,3.5,92,0.00,OVC,FEW,0.15,0.0,WeatherDisplay:10.37,2013-04-03 07:04:00,
2013-04-03 09:09:00,51.5,49.3,29.65,NNW,329,3.5,3.5,92,0.00,OVC,FEW,0.15,0.0,WeatherDisplay:10.37,2013-04-03 07:09:00,
2013-04-03 09:14:00,51.4,49.2,29.66,NW,309,3.5,3.5,92,0.00,OVC,FEW,0.15,0.0,WeatherDisplay:10.37,2013-04-03 07:14:00,
2013-04-03 09:19:00,51.1,48.9,29.65,West,277,2.3,2.3,92,0.00,OVC,FEW,0.15,0.0,WeatherDisplay:10.37,2013-04-03 07:19:00,
2013-04-03 09:24:00,51.2,49.0,29.66,West,276,4.6,4.6,92,0.00,OVC,FEW,0.15,0.0,WeatherDisplay:10.37,2013-04-03 07:24:00,
2013-04-03 09:29:00,51.4,49.2,29.66,West,280,5.8,5.8,92,0.00,OVC,FEW,0.15,0.0,WeatherDisplay:10.37,2013-04-03 07:29:00,
2013-04-03 09:34:00,51.6,49.4,29.66,West,264,6.9,6.9,92,0.00,OVC,FEW,0.15,0.0,WeatherDisplay:10.37,2013-04-03 07:34:00,
2013-04-03 09:39:00,51.7,49.5,29.66,West,276,6.9,6.9,92,0.00,OVC,FEW,0.15,0.0,WeatherDisplay:10.37,2013-04-03 07:39:00,
2013-04-03 09:44:00,51.8,49.5,29.66,West,279,8.1,8.1,92,0.01,RA,FEW,0.16,0.0,WeatherDisplay:10.37,2013-04-03 07:44:00,
2013-04-03 09:50:00,51.7,49.5,29.66,West,269,10.4,10.4,92,0.02,RA,FEW,0.17,0.0,WeatherDisplay:10.37,2013-04-03 07:50:00,
2013-04-03 09:55:00,51.6,49.4,29.66,West,272,13.0,13.0,92,0.02,RA,FEW,0.17,0.0,WeatherDisplay:10.37,2013-04-03 07:55:00,
2013-04-03 10:00:00,51.7,49.5,29.66,NW,309,8.1,8.1,92,0.02,OVC,FEW,0.17,0.0,WeatherDisplay:10.37,2013-04-03 08:00:00,
2013-04-03 10:05:00,51.8,49.5,29.67,West,270,9.2,9.2,92,0.02,OVC,FEW,0.17,0.0,WeatherDisplay:10.37,2013-04-03 08:05:00,
2013-04-03 10:10:00,51.8,49.5,29.67,NW,326,3.5,3.5,92,0.02,OVC,FEW,0.17,0.0,WeatherDisplay:10.37,2013-04-03 08:10:00,
2013-04-03 10:15:00,51.8,49.5,29.67,WNW,285,3.5,3.5,92,0.02,OVC,FEW,0.17,0.0,WeatherDisplay:10.37,2013-04-03 08:15:00,
2013-04-03 10:20:00,51.9,49.9,29.67,WNW,292,5.8,5.8,93,0.02,OVC,FEW,0.17,0.0,WeatherDisplay:10.37,2013-04-03 08:20:00,
2013-04-03 10:25:00,52.1,50.1,29.67,West,280,8.1,8.1,93,0.02,OVC,FEW,0.17,0.0,WeatherDisplay:10.37,2013-04-03 08:25:00,
2013-04-03 10:30:00,52.2,50.2,29.67,West,261,8.1,8.1,93,0.02,OVC,FEW,0.17,0.0,WeatherDisplay:10.37,2013-04-03 08:30:00,
2013-04-03 10:35:00,52.4,50.4,29.67,West,269,9.2,9.2,93,0.02,OVC,FEW,0.17,0.0,WeatherDisplay:10.37,2013-04-03 08:35:00,
2013-04-03 10:40:00,52.2,49.9,29.67,WNW,292,6.0,6.0,92,0.02,OVC,FEW,0.17,0.0,WeatherDisplay:10.37,2013-04-03 08:40:00,
2013-04-03 10:45:00,52.1,49.8,29.67,WNW,300,8.1,8.1,92,0.01,OVC,FEW,0.17,0.0,WeatherDisplay:10.37,2013-04-03 08:45:00,
2013-04-03 10:50:00,52.2,49.9,29.67,WNW,300,8.1,8.1,92,0.00,OVC,FEW,0.17,0.0,WeatherDisplay:10.37,2013-04-03 08:50:00,
2013-04-03 10:55:00,52.3,50.0,29.67,West,262,9.2,9.2,92,0.00,OVC,FEW,0.17,0.0,WeatherDisplay:10.37,2013-04-03 08:55:00,
2013-04-03 11:00:00,52.3,50.0,29.67,West,275,9.2,9.2,92,0.00,OVC,FEW,0.17,0.0,WeatherDisplay:10.37,2013-04-03 09:00:00,
2013-04-03 11:05:00,52.2,49.9,29.68,WSW,244,11.5,11.5,92,0.00,OVC,FEW,0.17,0.0,WeatherDisplay:10.37,2013-04-03 09:05:00,
2013-04-03 11:10:00,52.2,49.9,29.68,WNW,290,5.8,5.8,92,0.00,OVC,FEW,0.17,0.0,WeatherDisplay:10.37,2013-04-03 09:10:00,
2013-04-03 11:15:00,52.4,50.1,29.68,West,265,8.0,8.0,92,0.00,OVC,FEW,0.17,0.0,WeatherDisplay:10.37,2013-04-03 09:15:00,
2013-04-03 11:20:00,52.4,50.1,29.68,WSW,258,4.6,4.6,92,0.00,OVC,FEW,0.17,0.0,WeatherDisplay:10.37,2013-04-03 09:20:00,
2013-04-03 11:25:00,52.5,50.5,29.68,West,267,3.5,3.5,93,0.00,OVC,FEW,0.17,0.0,WeatherDisplay:10.37,2013-04-03 09:25:00,
2013-04-03 11:30:00,52.5,50.2,29.68,WSW,244,7.0,7.0,92,0.00,OVC,FEW,0.17,0.0,WeatherDisplay:10.37,2013-04-03 09:30:00,
2013-04-03 11:35:00,52.4,50.1,29.68,West,273,4.0,4.0,92,0.01,RA,FEW,0.17,0.0,WeatherDisplay:10.37,2013-04-03 09:35:00,
2013-04-03 11:41:00,52.3,50.0,29.68,NW,304,9.2,9.2,92,0.01,RA,FEW,0.17,0.0,WeatherDisplay:10.37,2013-04-03 09:41:00,
2013-04-03 11:46:00,51.9,49.6,29.69,WNW,285,11.5,11.5,92,0.08,RA,FEW,0.26,0.0,WeatherDisplay:10.37,2013-04-03 09:46:00,
2013-04-03 11:51:00,51.8,49.8,29.69,West,275,9.2,9.2,93,0.11,RA,FEW,0.28,0.0,WeatherDisplay:10.37,2013-04-03 09:51:00,
2013-04-03 11:56:00,51.6,49.6,29.69,West,263,6.9,6.9,93,0.12,RA,FEW,0.29,0.0,WeatherDisplay:10.37,2013-04-03 09:56:00,
2013-04-03 12:01:00,51.5,49.5,29.69,West,268,10.4,10.4,93,0.13,RA,FEW,0.29,0.0,WeatherDisplay:10.37,2013-04-03 10:01:00,
2013-04-03 12:06:00,51.3,49.3,29.69,WNW,288,6.9,6.9,93,0.13,RA,FEW,0.29,0.0,WeatherDisplay:10.37,2013-04-03 10:06:00,
2013-04-03 12:11:00,51.4,49.4,29.69,West,265,9.2,9.2,93,0.13,OVC,FEW,0.29,0.0,WeatherDisplay:10.37,2013-04-03 10:11:00,
2013-04-03 12:16:00,51.7,50.0,29.69,West,275,9.2,9.2,94,0.13,OVC,FEW,0.29,0.0,WeatherDisplay:10.37,2013-04-03 10:16:00,
2013-04-03 12:22:00,52.2,50.5,29.69,West,264,11.5,11.5,94,0.13,OVC,FEW,0.29,0.0,WeatherDisplay:10.37,2013-04-03 10:22:00,
2013-04-03 12:27:00,52.6,50.9,29.70,West,272,6.9,6.9,94,0.13,OVC,FEW,0.29,0.0,WeatherDisplay:10.37,2013-04-03 10:27:00,
2013-04-03 12:32:00,52.7,50.7,29.70,West,265,5.8,5.8,93,0.13,OVC,FEW,0.29,0.0,WeatherDisplay:10.37,2013-04-03 10:32:00,
2013-04-03 12:37:00,52.4,50.4,29.70,West,274,10.4,10.4,93,0.12,OVC,FEW,0.29,0.0,WeatherDisplay:10.37,2013-04-03 10:37:00,
2013-04-03 12:42:00,52.4,50.7,29.70,WSW,242,10.4,10.4,94,0.12,OVC,FEW,0.29,0.0,WeatherDisplay:10.37,2013-04-03 10:42:00,
2013-04-03 12:47:00,52.5,50.8,29.70,West,266,8.0,8.0,94,0.03,OVC,FEW,0.29,0.0,WeatherDisplay:10.37,2013-04-03 10:47:00,
2013-04-03 12:52:00,52.8,51.1,29.70,WNW,283,6.9,6.9,94,0.02,OVC,FEW,0.29,0.0,WeatherDisplay:10.37,2013-04-03 10:52:00,
2013-04-03 12:57:00,53.3,51.6,29.70,WNW,285,11.5,11.5,94,0.00,OVC,FEW,0.29,0.0,WeatherDisplay:10.37,2013-04-03 10:57:00,
2013-04-03 13:02:00,53.5,51.8,29.70,West,273,8.1,8.1,94,0.00,OVC,FEW,0.29,0.0,WeatherDisplay:10.37,2013-04-03 11:02:00,
2013-04-03 13:07:00,53.6,51.6,29.70,NW,313,11.5,11.5,93,0.00,OVC,FEW,0.29,0.0,WeatherDisplay:10.37,2013-04-03 11:07:00,
2013-04-03 13:12:00,53.2,51.2,29.70,WNW,288,9.2,9.2,93,0.00,OVC,FEW,0.29,0.0,WeatherDisplay:10.37,2013-04-03 11:12:00,
2013-04-03 13:17:00,53.1,51.1,29.70,West,265,9.2,9.2,93,0.00,OVC,FEW,0.29,0.0,WeatherDisplay:10.37,2013-04-03 11:17:00,
2013-04-03 13:22:00,53.2,51.2,29.70,WNW,286,10.4,10.4,93,0.00,OVC,FEW,0.29,0.0,WeatherDisplay:10.37,2013-04-03 11:22:00,
2013-04-03 13:27:00,53.2,51.2,29.70,WSW,252,6.9,6.9,93,0.00,OVC,FEW,0.29,0.0,WeatherDisplay:10.37,2013-04-03 11:27:00,
2013-04-03 13:32:00,53.3,51.3,29.70,West,262,8.1,8.1,93,0.00,OVC,FEW,0.29,0.0,WeatherDisplay:10.37,2013-04-03 11:32:00,
2013-04-03 13:37:00,53.5,51.5,29.70,West,275,11.5,11.5,93,0.00,OVC,FEW,0.29,0.0,WeatherDisplay:10.37,2013-04-03 11:37:00,
2013-04-03 13:42:00,53.7,51.4,29.70,West,265,10.4,10.4,92,0.00,OVC,FEW,0.29,0.0,WeatherDisplay:10.37,2013-04-03 11:42:00,
2013-04-03 13:48:00,53.8,51.5,29.70,West,277,11.5,11.5,92,0.00,OVC,FEW,0.29,0.0,WeatherDisplay:10.37,2013-04-03 11:48:00,
2013-04-03 13:53:00,54.0,51.7,29.70,West,273,8.0,8.0,92,0.00,OVC,FEW,0.29,0.0,WeatherDisplay:10.37,2013-04-03 11:53:00,
2013-04-03 13:58:00,54.6,52.0,29.70,NW,314,17.3,17.3,91,0.00,OVC,FEW,0.29,0.0,WeatherDisplay:10.37,2013-04-03 11:58:00,
2013-04-03 14:03:00,55.2,52.6,29.70,West,276,9.2,9.2,91,0.00,OVC,FEW,0.29,0.0,WeatherDisplay:10.37,2013-04-03 12:03:00,
2013-04-03 14:08:00,55.8,52.9,29.70,West,263,12.7,12.7,90,0.00,OVC,FEW,0.29,0.0,WeatherDisplay:10.37,2013-04-03 12:08:00,
2013-04-03 14:13:00,56.5,53.3,29.70,West,275,9.2,9.2,89,0.00,OVC,FEW,0.29,0.0,WeatherDisplay:10.37,2013-04-03 12:13:00,
2013-04-03 14:18:00,56.7,53.2,29.70,West,277,13.8,13.8,88,0.00,OVC,FEW,0.29,0.0,WeatherDisplay:10.37,2013-04-03 12:18:00,
2013-04-03 14:23:00,57.4,53.6,29.70,West,263,8.1,8.1,87,0.00,OVC,FEW,0.29,0.0,WeatherDisplay:10.37,2013-04-03 12:23:00,
2013-04-03 14:28:00,57.3,52.8,29.70,West,281,15.0,15.0,85,0.00,OVC,FEW,0.29,0.0,WeatherDisplay:10.37,2013-04-03 12:28:00,
2013-04-03 14:33:00,57.2,52.4,29.70,WNW,290,15.0,15.0,84,0.00,OVC,FEW,0.29,0.0,WeatherDisplay:10.37,2013-04-03 12:33:00,
2013-04-03 14:38:00,57.5,52.4,29.70,West,272,15.0,15.0,83,0.00,OVC,FEW,0.29,0.0,WeatherDisplay:10.37,2013-04-03 12:38:00,
2013-04-03 14:43:00,57.5,52.0,29.70,West,279,12.7,12.7,82,0.00,OVC,FEW,0.29,0.0,WeatherDisplay:10.37,2013-04-03 12:43:00,
2013-04-03 14:48:00,57.8,52.3,29.70,WSW,250,12.0,12.0,82,0.00,OVC,FEW,0.29,0.0,WeatherDisplay:10.37,2013-04-03 12:48:00,
2013-04-03 14:53:00,57.9,52.4,29.71,West,267,11.5,11.5,82,0.00,OVC,FEW,0.29,0.0,WeatherDisplay:10.37,2013-04-03 12:53:00,
2013-04-03 14:58:00,58.0,52.9,29.71,SSW,198,13.8,13.8,83,0.00,OVC,FEW,0.29,0.0,WeatherDisplay:10.37,2013-04-03 12:58:00,
2013-04-03 15:03:00,57.8,52.3,29.71,West,269,13.8,13.8,82,0.00,OVC,FEW,0.29,0.0,WeatherDisplay:10.37,2013-04-03 13:03:00,
2013-04-03 15:08:00,58.1,53.0,29.71,West,270,12.7,12.7,83,0.00,OVC,FEW,0.29,0.0,WeatherDisplay:10.37,2013-04-03 13:08:00,
2013-04-03 15:13:00,58.0,52.5,29.71,West,277,12.7,12.7,82,0.00,OVC,FEW,0.29,0.0,WeatherDisplay:10.37,2013-04-03 13:13:00,
2013-04-03 15:18:00,57.7,52.2,29.71,West,273,13.8,13.8,82,0.00,OVC,FEW,0.29,0.0,WeatherDisplay:10.37,2013-04-03 13:18:00,
2013-04-03 15:23:00,57.7,52.6,29.71,West,278,11.5,11.5,83,0.00,OVC,FEW,0.29,0.0,WeatherDisplay:10.37,2013-04-03 13:23:00,
2013-04-03 15:28:00,57.9,53.1,29.71,WSW,256,12.7,12.7,84,0.00,OVC,FEW,0.29,0.0,WeatherDisplay:10.37,2013-04-03 13:28:00,
2013-04-03 15:33:00,58.3,53.2,29.71,WSW,243,5.8,5.8,83,0.00,OVC,FEW,0.29,0.0,WeatherDisplay:10.37,2013-04-03 13:33:00,
2013-04-03 15:38:00,58.7,53.2,29.71,WSW,257,11.5,11.5,82,0.00,OVC,FEW,0.29,0.0,WeatherDisplay:10.37,2013-04-03 13:38:00,
2013-04-03 15:43:00,58.8,53.3,29.71,WNW,290,8.1,8.1,82,0.00,OVC,FEW,0.29,0.0,WeatherDisplay:10.37,2013-04-03 13:43:00,
2013-04-03 15:48:00,59.0,53.5,29.71,WNW,287,12.7,12.7,82,0.00,OVC,FEW,0.29,0.0,WeatherDisplay:10.37,2013-04-03 13:48:00,
2013-04-03 15:53:00,59.0,53.5,29.71,NW,321,5.8,5.8,82,0.00,OVC,FEW,0.29,0.0,WeatherDisplay:10.37,2013-04-03 13:53:00,
2013-04-03 15:58:00,59.2,53.4,29.71,WNW,284,8.1,8.1,81,0.00,OVC,FEW,0.29,0.0,WeatherDisplay:10.37,2013-04-03 13:58:00,
2013-04-03 16:03:00,59.3,53.1,29.71,WNW,303,9.2,9.2,80,0.00,OVC,FEW,0.29,0.0,WeatherDisplay:10.37,2013-04-03 14:03:00,
2013-04-03 16:08:00,59.3,52.8,29.72,WNW,296,10.4,10.4,79,0.00,OVC,FEW,0.29,0.0,WeatherDisplay:10.37,2013-04-03 14:08:00,
2013-04-03 16:13:00,58.9,52.4,29.71,West,268,10.4,10.4,79,0.00,OVC,FEW,0.29,0.0,WeatherDisplay:10.37,2013-04-03 14:13:00,
2013-04-03 16:18:00,58.5,52.0,29.71,West,269,10.4,10.4,79,0.00,OVC,FEW,0.29,0.0,WeatherDisplay:10.37,2013-04-03 14:18:00,
2013-04-03 16:23:00,58.3,52.5,29.72,WNW,285,9.2,9.2,81,0.00,OVC,FEW,0.29,0.0,WeatherDisplay:10.37,2013-04-03 14:23:00,
2013-04-03 16:28:00,58.2,52.4,29.72,West,279,10.4,10.4,81,0.00,OVC,FEW,0.29,0.0,WeatherDisplay:10.37,2013-04-03 14:28:00,
2013-04-03 16:33:00,58.1,52.3,29.72,West,269,11.5,11.5,81,0.00,OVC,FEW,0.29,0.0,WeatherDisplay:10.37,2013-04-03 14:33:00,
2013-04-03 16:38:00,57.9,52.1,29.72,WSW,240,11.5,11.5,81,0.00,OVC,FEW,0.29,0.0,WeatherDisplay:10.37,2013-04-03 14:38:00,
2013-04-03 16:43:00,57.7,51.9,29.72,WNW,301,9.2,9.2,81,0.00,OVC,FEW,0.29,0.0,WeatherDisplay:10.37,2013-04-03 14:43:00,
2013-04-03 16:48:00,57.4,51.9,29.72,WNW,292,11.5,11.5,82,0.00,OVC,FEW,0.29,0.0,WeatherDisplay:10.37,2013-04-03 14:48:00,
2013-04-03 16:54:00,57.4,51.9,29.72,West,277,12.7,12.7,82,0.00,OVC,FEW,0.29,0.0,WeatherDisplay:10.37,2013-04-03 14:54:00,
2013-04-03 16:59:00,57.6,52.1,29.72,West,272,10.4,10.4,82,0.00,OVC,FEW,0.29,0.0,WeatherDisplay:10.37,2013-04-03 14:59:00,
2013-04-03 17:04:00,57.6,52.1,29.72,WNW,288,9.2,9.2,82,0.00,OVC,FEW,0.29,0.0,WeatherDisplay:10.37,2013-04-03 15:04:00,
2013-04-03 17:09:00,57.5,52.0,29.72,WSW,253,10.4,10.4,82,0.00,OVC,FEW,0.29,0.0,WeatherDisplay:10.37,2013-04-03 15:09:00,
2013-04-03 17:14:00,57.2,51.8,29.72,NW,312,11.5,11.5,82,0.00,OVC,FEW,0.29,0.0,WeatherDisplay:10.37,2013-04-03 15:14:00,
2013-04-03 17:19:00,57.1,52.0,29.72,West,263,10.4,10.4,83,0.00,OVC,FEW,0.29,0.0,WeatherDisplay:10.37,2013-04-03 15:19:00,
2013-04-03 17:24:00,57.2,52.1,29.72,SW,235,9.2,9.2,83,0.00,OVC,FEW,0.29,0.0,WeatherDisplay:10.37,2013-04-03 15:24:00,
2013-04-03 17:29:00,57.4,52.3,29.72,SW,219,9.2,9.2,83,0.00,OVC,FEW,0.29,0.0,WeatherDisplay:10.37,2013-04-03 15:29:00,
2013-04-03 17:34:00,57.4,52.3,29.72,WNW,286,6.9,6.9,83,0.00,OVC,FEW,0.29,0.0,WeatherDisplay:10.37,2013-04-03 15:34:00,
2013-04-03 17:39:00,57.4,52.3,29.72,WSW,248,11.5,11.5,83,0.00,OVC,FEW,0.29,0.0,WeatherDisplay:10.37,2013-04-03 15:39:00,
2013-04-03 17:44:00,57.1,52.0,29.72,WSW,252,8.1,8.1,83,0.00,OVC,FEW,0.29,0.0,WeatherDisplay:10.37,2013-04-03 15:44:00,
2013-04-03 17:49:00,57.0,51.9,29.72,West,272,9.2,9.2,83,0.00,OVC,FEW,0.29,0.0,WeatherDisplay:10.37,2013-04-03 15:49:00,
2013-04-03 17:54:00,56.9,51.8,29.72,WSW,253,9.2,9.2,83,0.00,OVC,FEW,0.29,0.0,WeatherDisplay:10.37,2013-04-03 15:54:00,
2013-04-03 17:59:00,56.9,52.1,29.73,WSW,247,9.2,9.2,84,0.00,OVC,FEW,0.29,0.0,WeatherDisplay:10.37,2013-04-03 15:59:00,
2013-04-03 18:04:00,56.6,51.8,29.72,West,277,13.8,13.8,84,0.00,OVC,FEW,0.29,0.0,WeatherDisplay:10.37,2013-04-03 16:04:00,
2013-04-03 18:09:00,56.4,51.6,29.72,WSW,256,11.5,11.5,84,0.00,OVC,FEW,0.29,0.0,WeatherDisplay:10.37,2013-04-03 16:09:00,
2013-04-03 18:15:00,56.1,51.7,29.73,WSW,251,10.4,10.4,85,0.00,OVC,FEW,0.29,0.0,WeatherDisplay:10.37,2013-04-03 16:15:00,
2013-04-03 18:20:00,56.3,51.8,29.73,West,261,11.5,11.5,85,0.00,OVC,FEW,0.29,0.0,WeatherDisplay:10.37,2013-04-03 16:20:00,
2013-04-03 18:25:00,56.2,51.7,29.73,WSW,252,10.4,10.4,85,0.00,OVC,FEW,0.29,0.0,WeatherDisplay:10.37,2013-04-03 16:25:00,
2013-04-03 18:30:00,55.7,51.3,29.73,West,259,9.2,9.2,85,0.00,OVC,FEW,0.29,0.0,WeatherDisplay:10.37,2013-04-03 16:30:00,
2013-04-03 18:35:00,55.5,51.4,29.74,WSW,254,10.4,10.4,86,0.00,OVC,FEW,0.29,0.0,WeatherDisplay:10.37,2013-04-03 16:35:00,
2013-04-03 18:40:00,55.4,51.3,29.74,WNW,294,8.1,8.1,86,0.00,OVC,FEW,0.29,0.0,WeatherDisplay:10.37,2013-04-03 16:40:00,
2013-04-03 18:45:00,55.1,51.0,29.74,WNW,292,9.2,9.2,86,0.00,OVC,FEW,0.29,0.0,WeatherDisplay:10.37,2013-04-03 16:45:00,
2013-04-03 18:50:00,55.0,50.9,29.74,SSE,166,11.5,11.5,86,0.00,OVC,FEW,0.29,0.0,WeatherDisplay:10.37,2013-04-03 16:50:00,
2013-04-03 18:55:00,54.7,50.9,29.74,WNW,294,9.2,9.2,87,0.00,OVC,FEW,0.29,0.0,WeatherDisplay:10.37,2013-04-03 16:55:00,
2013-04-03 19:00:00,54.5,50.7,29.74,West,265,8.1,8.1,87,0.00,OVC,FEW,0.29,0.0,WeatherDisplay:10.37,2013-04-03 17:00:00,
2013-04-03 19:05:00,54.5,50.7,29.74,WNW,294,8.1,8.1,87,0.00,OVC,FEW,0.29,0.0,WeatherDisplay:10.37,2013-04-03 17:05:00,
2013-04-03 19:10:00,54.2,50.4,29.75,NNW,327,9.2,9.2,87,0.00,OVC,FEW,0.29,0.0,WeatherDisplay:10.37,2013-04-03 17:10:00,
2013-04-03 19:15:00,54.2,50.4,29.75,West,266,9.2,9.2,87,0.00,OVC,FEW,0.29,0.0,WeatherDisplay:10.37,2013-04-03 17:15:00,
2013-04-03 19:20:00,54.0,50.2,29.75,West,262,9.2,9.2,87,0.00,OVC,FEW,0.29,0.0,WeatherDisplay:10.37,2013-04-03 17:20:00,
2013-04-03 19:25:00,53.8,50.3,29.75,WNW,300,8.1,8.1,88,0.00,OVC,FEW,0.29,0.0,WeatherDisplay:10.37,2013-04-03 17:25:00,
2013-04-03 19:30:00,53.8,50.3,29.75,West,259,10.4,10.4,88,0.00,OVC,FEW,0.29,0.0,WeatherDisplay:10.37,2013-04-03 17:30:00,
2013-04-03 19:35:00,53.6,50.1,29.75,WSW,253,8.1,8.1,88,0.00,OVC,FEW,0.29,0.0,WeatherDisplay:10.37,2013-04-03 17:35:00,
2013-04-03 19:40:00,53.5,50.0,29.76,West,281,6.9,6.9,88,0.00,OVC,FEW,0.29,0.0,WeatherDisplay:10.37,2013-04-03 17:40:00,
2013-04-03 19:45:00,53.3,49.8,29.76,West,261,6.9,6.9,88,0.00,OVC,FEW,0.29,0.0,WeatherDisplay:10.37,2013-04-03 17:45:00,
2013-04-03 19:50:00,53.3,49.8,29.76,South,184,6.9,6.9,88,0.00,OVC,FEW,0.29,0.0,WeatherDisplay:10.37,2013-04-03 17:50:00,
2013-04-03 19:55:00,53.3,50.1,29.76,SW,229,8.1,8.1,89,0.00,OVC,FEW,0.29,0.0,WeatherDisplay:10.37,2013-04-03 17:55:00,
2013-04-03 20:00:00,53.3,50.1,29.76,West,268,6.9,6.9,89,0.00,OVC,FEW,0.29,0.0,WeatherDisplay:10.37,2013-04-03 18:00:00,
2013-04-03 20:05:00,53.3,51.0,29.77,WNW,284,9.2,9.2,92,0.00,CLR,FEW,0.29,0.0,WeatherDisplay:10.37,2013-04-03 18:05:00,
2013-04-03 20:10:00,53.3,50.1,29.77,West,268,5.8,5.8,89,0.00,CLR,FEW,0.29,0.0,WeatherDisplay:10.37,2013-04-03 18:10:00,
2013-04-03 20:16:00,53.3,50.1,29.77,WSW,245,7.0,7.0,89,0.00,CLR,FEW,0.29,0.0,WeatherDisplay:10.37,2013-04-03 18:16:00,
2013-04-03 20:21:00,53.3,50.1,29.77,WNW,287,4.6,4.6,89,0.00,CLR,FEW,0.29,0.0,WeatherDisplay:10.37,2013-04-03 18:21:00,
2013-04-03 20:27:00,53.3,50.1,29.77,WSW,249,7.0,7.0,89,0.00,CLR,FEW,0.29,0.0,WeatherDisplay:10.37,2013-04-03 18:27:00,
2013-04-03 20:32:00,53.3,50.1,29.78,WSW,256,5.8,5.8,89,0.00,CLR,FEW,0.29,0.0,WeatherDisplay:10.37,2013-04-03 18:32:00,
2013-04-03 20:37:00,53.2,50.0,29.78,West,275,5.8,5.8,89,0.00,CLR,FEW,0.29,0.0,WeatherDisplay:10.37,2013-04-03 18:37:00,
2013-04-03 20:42:00,53.2,50.3,29.78,West,266,9.2,9.2,90,0.00,CLR,FEW,0.29,0.0,WeatherDisplay:10.37,2013-04-03 18:42:00,
2013-04-03 20:47:00,53.2,50.3,29.78,West,273,6.9,6.9,90,0.00,CLR,FEW,0.29,0.0,WeatherDisplay:10.37,2013-04-03 18:47:00,
2013-04-03 20:52:00,53.2,50.3,29.78,West,281,5.8,5.8,90,0.00,CLR,FEW,0.29,0.0,WeatherDisplay:10.37,2013-04-03 18:52:00,
2013-04-03 20:57:00,53.1,50.2,29.78,WSW,255,9.2,9.2,90,0.00,CLR,FEW,0.29,0.0,WeatherDisplay:10.37,2013-04-03 18:57:00,
2013-04-03 21:03:00,53.1,50.2,29.79,West,264,6.9,6.9,90,0.00,CLR,FEW,0.29,0.0,WeatherDisplay:10.37,2013-04-03 19:03:00,
2013-04-03 21:08:00,53.1,50.2,29.79,WSW,244,11.5,11.5,90,0.00,CLR,FEW,0.29,0.0,WeatherDisplay:10.37,2013-04-03 19:08:00,
2013-04-03 21:13:00,53.1,50.2,29.79,WSW,256,8.1,8.1,90,0.00,CLR,FEW,0.29,0.0,WeatherDisplay:10.37,2013-04-03 19:13:00,
2013-04-03 21:18:00,53.0,50.1,29.79,WSW,249,8.1,8.1,90,0.00,CLR,FEW,0.29,0.0,WeatherDisplay:10.37,2013-04-03 19:18:00,
2013-04-03 21:23:00,52.9,50.0,29.79,West,264,8.1,8.1,90,0.00,CLR,FEW,0.29,0.0,WeatherDisplay:10.37,2013-04-03 19:23:00,
2013-04-03 21:29:00,52.9,50.0,29.80,West,271,10.4,10.4,90,0.00,CLR,FEW,0.29,0.0,WeatherDisplay:10.37,2013-04-03 19:29:00,
2013-04-03 21:34:00,53.0,50.1,29.80,WSW,257,5.8,5.8,90,0.00,CLR,FEW,0.29,0.0,WeatherDisplay:10.37,2013-04-03 19:34:00,
2013-04-03 21:39:00,53.0,50.1,29.80,WSW,251,5.8,5.8,90,0.00,CLR,FEW,0.29,0.0,WeatherDisplay:10.37,2013-04-03 19:39:00,
2013-04-03 21:44:00,53.0,50.1,29.80,West,269,8.1,8.1,90,0.00,CLR,FEW,0.29,0.0,WeatherDisplay:10.37,2013-04-03 19:44:00,
2013-04-03 21:49:00,52.9,50.0,29.81,West,275,6.9,6.9,90,0.00,CLR,FEW,0.29,0.0,WeatherDisplay:10.37,2013-04-03 19:49:00,
2013-04-03 21:54:00,52.9,50.0,29.81,West,270,6.9,6.9,90,0.00,CLR,FEW,0.29,0.0,WeatherDisplay:10.37,2013-04-03 19:54:00,
2013-04-03 22:00:00,52.9,50.0,29.80,West,263,5.8,5.8,90,0.00,CLR,FEW,0.29,0.0,WeatherDisplay:10.37,2013-04-03 20:00:00,
2013-04-03 22:05:00,53.0,50.1,29.81,West,267,4.6,4.6,90,0.00,CLR,FEW,0.29,0.0,WeatherDisplay:10.37,2013-04-03 20:05:00,
2013-04-03 22:10:00,53.0,50.1,29.81,WSW,250,4.6,4.6,90,0.00,CLR,FEW,0.29,0.0,WeatherDisplay:10.37,2013-04-03 20:10:00,
2013-04-03 22:15:00,53.0,50.1,29.81,West,263,9.2,9.2,90,0.00,CLR,FEW,0.29,0.0,WeatherDisplay:10.37,2013-04-03 20:15:00,
2013-04-03 22:20:00,53.0,50.1,29.81,SW,232,6.9,6.9,90,0.00,CLR,FEW,0.29,0.0,WeatherDisplay:10.37,2013-04-03 20:20:00,
2013-04-03 22:25:00,53.0,50.1,29.81,WSW,252,4.6,4.6,90,0.00,CLR,FEW,0.29,0.0,WeatherDisplay:10.37,2013-04-03 20:25:00,
2013-04-03 22:30:00,53.0,50.1,29.81,SW,227,8.1,8.1,90,0.00,CLR,FEW,0.29,0.0,WeatherDisplay:10.37,2013-04-03 20:30:00,
2013-04-03 22:35:00,53.0,50.1,29.81,WSW,253,6.0,6.0,90,0.00,CLR,FEW,0.29,0.0,WeatherDisplay:10.37,2013-04-03 20:35:00,
2013-04-03 22:40:00,53.1,50.2,29.81,West,268,8.1,8.1,90,0.00,CLR,FEW,0.29,0.0,WeatherDisplay:10.37,2013-04-03 20:40:00,
2013-04-03 22:45:00,53.1,50.2,29.81,WSW,253,9.2,9.2,90,0.00,CLR,FEW,0.29,0.0,WeatherDisplay:10.37,2013-04-03 20:45:00,
2013-04-03 22:50:00,53.1,50.2,29.81,West,261,5.0,5.0,90,0.00,CLR,FEW,0.29,0.0,WeatherDisplay:10.37,2013-04-03 20:50:00,
2013-04-03 22:55:00,53.1,50.2,29.81,West,262,6.9,6.9,90,0.00,CLR,FEW,0.29,0.0,WeatherDisplay:10.37,2013-04-03 20:55:00,
2013-04-03 23:00:00,53.1,50.2,29.81,WSW,252,4.0,4.0,90,0.00,CLR,FEW,0.29,0.0,WeatherDisplay:10.37,2013-04-03 21:00:00,
2013-04-03 23:05:00,53.1,50.2,29.81,West,275,4.6,4.6,90,0.00,CLR,FEW,0.29,0.0,WeatherDisplay:10.37,2013-04-03 21:05:00,
2013-04-03 23:11:00,53.1,50.2,29.81,SW,229,4.6,4.6,90,0.00,CLR,FEW,0.29,0.0,WeatherDisplay:10.37,2013-04-03 21:11:00,
2013-04-03 23:16:00,53.2,50.3,29.81,West,259,5.8,5.8,90,0.00,CLR,FEW,0.29,0.0,WeatherDisplay:10.37,2013-04-03 21:16:00,
2013-04-03 23:21:00,53.1,50.3,29.81,West,260,2.0,7.0,90,0.00,CLR,FEW,0.29,0.0,WeatherDisplay:10.37,2013-04-03 21:21:00,
2013-04-03 23:26:00,53.1,50.2,29.82,West,264,3.5,3.5,90,0.00,CLR,FEW,0.29,0.0,WeatherDisplay:10.37,2013-04-03 21:26:00,
2013-04-03 23:31:00,53.0,50.1,29.81,SW,235,8.1,8.1,90,0.00,CLR,FEW,0.29,0.0,WeatherDisplay:10.37,2013-04-03 21:31:00,
2013-04-03 23:36:00,53.0,50.1,29.81,WSW,255,3.5,3.5,90,0.00,CLR,FEW,0.29,0.0,WeatherDisplay:10.37,2013-04-03 21:36:00,
2013-04-03 23:41:00,52.9,50.0,29.82,WNW,294,2.0,2.0,90,0.00,CLR,FEW,0.29,0.0,WeatherDisplay:10.37,2013-04-03 21:41:00,
2013-04-03 23:47:00,52.9,50.0,29.82,WNW,294,2.3,2.3,90,0.00,CLR,FEW,0.29,0.0,WeatherDisplay:10.37,2013-04-03 21:47:00,
2013-04-03 23:52:00,52.8,49.9,29.82,WSW,256,3.5,3.5,90,0.00,CLR,FEW,0.29,0.0,WeatherDisplay:10.37,2013-04-03 21:52:00,
2013-04-03 23:57:00,52.8,49.9,29.82,West,261,5.8,5.8,90,0.00,CLR,FEW,0.29,0.0,WeatherDisplay:10.37,2013-04-03 21:57:00,